User: anonymous   Login
Location: Caltech
(34.1382°N, 118.1253°W)
Time: 04:53:03
(UTC-07:00)
Language:

Cosmos 2219 - Orbit

View from above orbital plane
View from above orbital plane
View from above satellite
View from above satellite

Ground track
Ground track

The orbit data is extracted from the following two-line orbital elements,

1 22219U 92076A   16236.57305770  .00000038  00000-0  44789-4 0  9999
2 22219  71.0610  99.3818 0016247 126.4204 233.8419 14.13602138226155
Epoch (UTC): 23 August 2016 13:45:12
Eccentricity: 0.0016247
inclination: 71.0610°
perigee height: 835 km
apogee height: 859 km
right ascension of ascending node: 99.3818°
argument of perigee: 126.4204°
revolutions per day: 14.13602138
mean anomaly at epoch: 233.8419°
orbit number at epoch: 22615

The dashed part of the orbit path shows where the satellite is in the earth's shadow,  

DLR